SEBI

Registration No.

INH000000305

Ip Address Lookup

So far visitors:

customizable counter

TRIAL

TRIAL

SEND SMS FOR TRIAL

EQUITY - COMMODITY OR BOTH

TO

 09920033678

AND GET TRIAL

 

SEBI Registration No.: INH000000305 *****

* Commodity: 9500/month * Equity: 6000/month


* Gold Package: 7000 * Gold-Silver Package: 8100
*Crude-NG-Copper-Nickel Package: 6000


To See Past Performance, Click Here

For TRIAL / Registration,

click here

Past Performance >> Commodity
 
Search
 
Entry Start Date Entry End Date
Exit Start Date Exit End Date
Scrip Name Contract
Package
 

Packages: Precious Metals - Energy and Base Metals - Profit is calculated on basis of 1 lot per call

Package: Equity calls: Profit is calculated as follows:

1. If the scrip is in F & O then 1 lot is counted otherwise

2. Trade of Rs.1,50,000/- per call is counted.

 
Page: ( 1 2 3 4 5 6 7 8 9 10 11 12 13 14 15 16 17 18 19 20 21 22 23 24 25 26 27 28 29 30 31 32 33 34 35 36 37 38 39 40 41 42 43 44 45 46 47 48 49 50 51 52 53 54 55 56 57 58 59 60 61 62 63 64 65 66 67 68 69 70 71 72 73 74 75 76 77 78 ) [Current Page: 71]
Displaying 5251 to 5325   Calls
Entry Date Type Scrip Entry Price (Rs) T1
(Rs)
T2
(Rs)
T3
(Rs)
Stop Loss
(Rs)
Exit Date Exit Rate
(Rs)
Profit
(Rs)
 
02-11-12 Buy Above VOLTAS 116 120 123 126 112 05-11-12 119 6000.00 More
31-10-12 Sell Below Andhra Bank 102 100 98 96 104 31-10-12 104 -4000.00 More
31-10-12 Sell Below RELIANCE CAPITAL 397 392 387 382 403 31-10-12 384 6500.00 More
30-10-12 Sell Below Sterlite Ind 98 96 94 92 100 31-10-12 100 -4000.00 More
29-10-12 Sell Below Allahabad Bank 133 131 129 127 135 30-10-12 130 6000.00 More
26-10-12 Buy Above HEXAWARE 113.50 115.50 117 119 111 26-10-12 114.85 2700.00 More
26-10-12 Sell Below SBI 2205 2175 2150 2125 2230 26-10-12 2172 4125.00 More
25-10-12 Sell Below ACC 1395 1380 1370 1360 1409 25-10-12 1395 0.00 More
25-10-12 Sell Below JINDAL STEEL 390 385 380 375 395 25-10-12 385 2500.00 More
17-10-12 Sell Below RELIANCE 807 795 790 785 820 18-10-12 800 3500.00 More
16-10-12 Buy Above CIPLA 371 374 377 380 368 16-10-12 368 -3000.00 More
16-10-12 Buy Above OBC 302 310 315 320 295 16-10-12 295 -7000.00 More
15-10-12 Buy Above BOMDYEING 575 585 595 605 565 15-10-12 565 -1700.00 More
12-10-12 Buy Above FEDERAL BANK 482 491 500 --- 471 15-10-12 500 9000.00 More
12-10-12 Buy Above TATA STEEL 424 429 433 437 419 12-10-12 428 2000.00 More
11-10-12 Sell Below HDIL 98.50 95.50 93 91 101.50 11-10-12 101.50 -12000.00 More
11-10-12 Sell Below IRB Infra 147 144 142 140 150.50 11-10-12 150.50 -7000.00 More
11-10-12 Sell Below IDFC 150 147 144 140 153 11-10-12 153 -6000.00 More
10-10-12 Buy Above TATA STEEL 418 428 435 455 412 10-10-12 412 -3000.00 More
10-10-12 Sell Below 264 258 255 250 269 11-10-12 269 -5000.00 More
09-10-12 Sell Below PNB 798 790 780 770 807 09-10-12 793 1250.00 More
09-10-12 Sell Below Apollo Tyres 86 84.50 83 81 87.50 10-10-12 84.85 4600.00 More
08-10-12 Buy Above TATA MOTORS 283 290 295 300 277 08-10-12 277 -6000.00 More
05-10-12 Buy Above NCC 52.50 54 55 56 51 05-10-12 51 -6000.00 More
04-10-12 Buy Above GMDC 205 210 215 220 199 04-10-12 208.40 1700.00 More
03-10-12 Buy Above Ranbaxy 546 555 565 575 537 04-10-12 537 -4500.00 More
03-10-12 Buy Above SBI 2295 2310 2330 2350 2280 05-10-12 2350 6875.00 More
01-10-12 Buy Above HINDALCO 122 124 126 128 120 01-10-12 124 4000.00 More
01-10-12 Buy Above FinanTech 984 1000 1020 --- 966 05-10-12 1020 18000.00 More
28-09-12 Buy Above OBC 298 304 308 312 292 28-09-12 303 5000.00 More
28-09-12 Buy Above Dish TV 82.50 84 85 86 81 28-09-12 85.35 11400.00 More
28-09-12 Buy Above TITAN 257 263 267 272 251 05-10-12 272 15000.00 More
27-09-12 Sell Below 263.50 261 259 255 266 27-09-12 261 2500.00 More
26-09-12 Buy Above ACC 1382 1392 1400 1410 1372 26-09-12 1410 7000.00 More
25-09-12 Buy Above HDIL 93.50 98 100 102 89 26-09-12 96.40 11600.00 More
25-09-12 Buy Above FinanTech 940 955 965 975 926 27-09-12 935 -2500.00 More
24-09-12 Buy Above Adani Power 47.50 49 50 51 46 24-09-12 51 14000.00 More
24-09-12 Buy Above Havells India 610 625 640 650 595 25-09-12 638 14000.00 More
20-09-12 Buy Above TVS MOTOR 42.50 45 47 --- 40 21-09-12 44 12000.00 More
18-09-12 Buy Above BEML 315 330 345 365 300 18-09-12 323 4000.00 More
13-09-12 Buy Above BATA 954 965 975 --- 945 13-09-12 945 -4500.00 More
12-09-12 Buy Above Opto Circuit 140.50 142.50 145 147 138.50 12-09-12 138.50 -2000.00 More
11-09-12 Buy Above HINDALCO 109.50 110.50 113 115 107.50 12-09-12 107.50 -4000.00 More
10-09-12 Buy Above INFY 2495 2510 2525 2545 2460 11-09-12 2544 6125.00 More
10-09-12 Buy Above FinanTech 870 890 900 --- 858 11-09-12 890 10000.00 More
04-09-12 Buy Above AURO PHARMA 120 124 128 132 116 10-09-12 132 24000.00 More
04-09-12 Buy Above ExideInd 139 143 146 150 135.50 05-09-12 146.85 15700.00 More
04-09-12 Sell Below BOMDYEING 425 418 410 400 433 04-09-12 419.90 2550.00 More
04-09-12 Sell Below JINDAL STEEL 342 336 330 325 348 04-09-12 348 -3000.00 More
03-09-12 Buy Above BIOCON 265 272 278 282 257 10-09-12 279 14000.00 More
03-09-12 Sell Below ACC 1312 1302 1290 1265 1322 03-09-12 1303 2250.00 More
03-09-12 Sell Below RELIANCE 768 764 762 757 777 04-09-12 777 -4500.00 More
31-08-12 Sell Below 354 349 344 340 359 31-08-12 359 -5000.00 More
31-08-12 Sell Below HERO MOTOR 1780 1760 1740 1720 1800 03-09-12 1721 7375.00 More
31-08-12 Sell Below MARUTI 1135 1125 1115 1100 1155 03-09-12 1155 -5000.00 More
30-08-12 Sell Below SBI 1825 1810 1795 1770 1840 30-08-12 1817 1000.00 More
30-08-12 Sell Below RELIANCE 774 750 725 --- 790 30-08-12 774 0.00 More
29-08-12 Sell Below BGR Energy 255 252 249 245 258 30-08-12 251.50 3500.00 More
29-08-12 Sell Below PFC 159.50 157 155 153 161.50 30-08-12 153 13000.00 More
28-08-12 Sell Below BHEL 224 220 216 212 228 29-08-12 214.60 9400.00 More
28-08-12 Sell Below SBI 1835 1800 1780 1760 1865 29-08-12 1865 -3750.00 More
28-08-12 Sell Below HDIL 72 70 68 66 74 28-08-12 74 -8000.00 More
28-08-12 Sell Below PFC 167.50 165 163 161 170 28-08-12 161 13000.00 More
27-08-12 Sell Below HDIL 75 73 71 69 76.50 27-08-12 72.15 11400.00 More
27-08-12 Sell Below ARVIND 67 65 63 61 69 29-08-12 61 24000.00 More
27-08-12 Sell Below BGR Energy 263 259 255 250 267 27-08-12 259 4000.00 More
24-08-12 Sell Below PFC 175 173 171 169 177 27-08-12 170 10000.00 More
23-08-12 Buy Above Ranbaxy 538 545 560 575 528 27-08-12 560 11000.00 More
23-08-12 Buy Above MTNL 36 38 39 40 33.50 24-08-12 40 32000.00 More
23-08-12 Sell Below ExideInd 127 125 123 121 129 23-08-12 129 -4000.00 More
22-08-12 Sell Below 255 250 245 240 260 23-08-12 244.05 10950.00 More
22-08-12 Buy Above ICICI BANK 980 992 1000 1010 968 23-08-12 990 2500.00 More
21-08-12 Buy Above Delta Corp 65 67 69 71 63 22-08-12 63 -8000.00 More
17-08-12 Sell Below 116 114 112 110 118.50 22-08-12 110 12000.00 More
16-08-12 Buy Above ICICI BANK 979 990 1000 1010 968 16-08-12 968 -2750.00 More
Page wise profit 288800.00 Rs
Profit 18770297.75 Rs
TRIAL

TRIAL

SEND SMS FOR TRIAL

EQUITY - COMMODITY OR BOTH

TO

 09920033678

AND GET TRIAL